FW1653 Weather Reports


Display with metric or nautical units.
time (UTC)temp
F
wind
direction
speed
MPH
gust
MPH
rain 1hr
in
rain 24hr
in
rain mn
in
humidity
%
barometer
mb
20201031133117 55 92 2.0 3.0 0.00 0.00 0.00 43 1018.6
20201031132105 55 87 2.0 3.0 0.00 0.00 0.00 42 1018.4
20201031131124 55 97 1.0 3.0 0.00 0.00 0.00 41 1018.4
20201031130115 55 85 1.0 3.0 0.00 0.00 0.00 41 1018.4
20201031125104 55 94 0.0 2.0 0.00 0.00 0.00 41 1018.3
20201031124107 55 113 0.0 0.0 0.00 0.00 0.00 41 1018.2
20201031123124 55 158 0.0 0.0 0.00 0.00 0.00 41 1018.2
20201031122106 56 90 0.0 0.0 0.00 0.00 0.00 40 1017.9
20201031121107 56 113 0.0 0.0 0.00 0.00 0.00 40 1017.9
20201031120100 56 45 0.0 1.0 0.00 0.00 0.00 39 1017.9
20201031115103 57 74 1.0 3.0 0.00 0.00 0.00 39 1017.8
20201031114106 57 84 1.0 2.0 0.00 0.00 0.00 38 1017.6
20201031113111 58 94 1.0 3.0 0.00 0.00 0.00 38 1017.4
20201031112100 58 92 1.0 3.0 0.00 0.00 0.00 39 1017.4
20201031111058 57 88 1.0 3.0 0.00 0.00 0.00 39 1017.4
20201031110115 57 90 1.0 3.0 0.00 0.00 0.00 38 1017.6
20201031105058 57 113 0.0 1.0 0.00 0.00 0.00 38 1017.4
20201031104102 57 113 0.0 1.0 0.00 0.00 0.00 38 1017.4
20201031103100 57 100 0.0 2.0 0.00 0.00 0.00 38 1017.4
20201031102059 58 95 0.0 2.0 0.00 0.00 0.00 38 1017.4
20201031101106 58 96 0.0 2.0 0.00 0.00 0.00 38 1017.4
20201031100102 59 90 0.0 3.0 0.00 0.00 0.00 38 1017.3
20201031095101 59 86 1.0 2.0 0.00 0.00 0.00 38 1017.2
20201031094157 59 81 1.0 2.0 0.00 0.00 0.00 38 1017.2
20201031093101 58 84 1.0 2.0 0.00 0.00 0.00 38 1017.2
20201031092106 58 113 0.0 1.0 0.00 0.00 0.00 38 1017.2
20201031091102 57 82 1.0 2.0 0.00 0.00 0.00 38 1017.2
20201031090101 57 89 0.0 3.0 0.00 0.00 0.00 39 1017.2
20201031085110 58 81 1.0 3.0 0.00 0.00 0.00 38 1017.1
20201031084103 58 61 2.0 3.0 0.00 0.00 0.00 38 1017.1
20201031083059 58 77 2.0 3.0 0.00 0.00 0.00 38 1016.9
20201031082105 59 79 2.0 3.0 0.00 0.00 0.00 37 1017.1
20201031081059 59 72 2.0 3.0 0.00 0.00 0.00 37 1017.1
20201031080059 59 67 2.0 3.0 0.00 0.00 0.00 37 1017.1
20201031075059 59 102 2.0 3.0 0.00 0.00 0.00 37 1017.2
20201031074105 59 82 2.0 3.0 0.00 0.00 0.00 37 1017.2
20201031073101 59 88 2.0 4.0 0.00 0.00 0.00 37 1017.1
20201031072059 60 81 2.0 4.0 0.00 0.00 0.00 37 1016.9
20201031071101 60 89 2.0 3.0 0.00 0.00 0.00 36 1016.9
20201031070058 61 71 2.0 4.0 0.00 0.00 0.00 36 1016.9
20201031065102 62 82 2.0 4.0 0.00 0.00 0.00 36 1016.9
20201031064104 62 50 2.0 3.0 0.00 0.00 0.00 36 1016.9
20201031063101 61 80 2.0 4.0 0.00 0.00 0.00 36 1016.9
20201031062107 61 99 2.0 4.0 0.00 0.00 0.00 36 1016.9
20201031061103 62 93 2.0 4.0 0.00 0.00 0.00 35 1017.1
20201031060108 62 90 2.0 3.0 0.00 0.00 0.00 34 1017.1
20201031055100 63 82 2.0 4.0 0.00 0.00 0.00 34 1017.1
20201031054106 63 93 2.0 3.0 0.00 0.00 0.00 34 1017.1
20201031053103 63 78 2.0 3.0 0.00 0.00 0.00 34 1016.9
20201031052104 63 69 2.0 3.0 0.00 0.00 0.00 34 1016.9
20201031051106 63 81 2.0 3.0 0.00 0.00 0.00 34 1016.9
20201031050102 63 83 2.0 3.0 0.00 0.00 0.00 34 1016.9
20201031045103 64 92 2.0 3.0 0.00 0.00 0.00 34 1016.9
20201031044110 64 86 2.0 3.0 0.00 0.00 0.00 33 1016.7
20201031043108 65 64 2.0 3.0 0.00 0.00 0.00 33 1016.6
20201031042106 65 86 2.0 3.0 0.00 0.00 0.00 32 1016.4
20201031041100 66 55 2.0 3.0 0.00 0.00 0.00 32 1016.4
20201031040101 66 52 2.0 3.0 0.00 0.00 0.00 32 1016.4
20201031035105 67 80 1.0 3.0 0.00 0.00 0.00 31 1016.3
20201031034104 67 75 1.0 2.0 0.00 0.00 0.00 31 1016.3
20201031033114 69 8 0.0 2.0 0.00 0.00 0.00 30 1016.2
20201031032101 69 41 1.0 3.0 0.00 0.00 0.00 29 1016.1
20201031031112 69 31 1.0 2.0 0.00 0.00 0.00 29 1015.9
20201031030104 69 26 0.0 2.0 0.00 0.00 0.00 29 1015.9
20201031025104 69 92 0.0 3.0 0.00 0.00 0.00 28 1015.9
20201031024059 70 88 1.0 3.0 0.00 0.00 0.00 27 1015.9
20201031023111 69 95 2.0 3.0 0.00 0.00 0.00 27 1015.9
20201031022102 69 68 1.0 2.0 0.00 0.00 0.00 26 1015.8
20201031021059 68 80 1.0 3.0 0.00 0.00 0.00 26 1015.8
20201031020108 68 113 0.0 0.0 0.00 0.00 0.00 25 1015.6
20201031015100 69 158 0.0 0.0 0.00 0.00 0.00 24 1015.4
20201031014104 70 158 0.0 0.0 0.00 0.00 0.00 24 1015.3
20201031013101 71 135 0.0 0.0 0.00 0.00 0.00 23 1015.1
20201031012101 73 158 0.0 0.0 0.00 0.00 0.00 22 1014.9
20201031011100 74 113 0.0 0.0 0.00 0.00 0.00 21 1014.7
20201031010106 75 158 0.0 0.0 0.00 0.00 0.00 21 1014.7
20201031005059 77 247 0.0 1.0 0.00 0.00 0.00 20 1014.4
20201031004100 77 271 0.0 3.0 0.00 0.00 0.00 19 1014.4
20201031003102 78 236 0.0 2.0 0.00 0.00 0.00 19 1014.4
20201031002143 80 240 0.0 2.0 0.00 0.00 0.00 18 1014.4
20201031001116 81 215 1.0 4.0 0.00 0.00 0.00 17 1014.4
20201031000104 82 217 1.0 3.0 0.00 0.00 0.00 17 1014.3
20201030235106 84 220 0.0 2.0 0.00 0.00 0.00 16 1014.3
20201030234100 86 166 0.0 2.0 0.00 0.00 0.00 16 1014.4
20201030233103 85 254 0.0 3.0 0.00 0.00 0.00 17 1014.4
20201030232100 86 199 1.0 4.0 0.00 0.00 0.00 16 1014.4
20201030231115 86 286 0.0 2.0 0.00 0.00 0.00 16 1014.4
20201030230109 87 46 0.0 1.0 0.00 0.00 0.00 16 1014.4
20201030225102 87 23 0.0 1.0 0.00 0.00 0.00 16 1014.6
20201030224103 86 259 0.0 3.0 0.00 0.00 0.00 16 1014.6
20201030223102 87 236 0.0 2.0 0.00 0.00 0.00 16 1014.7
20201030222102 87 138 0.0 2.0 0.00 0.00 0.00 16 1014.7
20201030221102 88 202 0.0 2.0 0.00 0.00 0.00 16 1014.8
20201030220103 88 126 0.0 3.0 0.00 0.00 0.00 16 1014.8
20201030215113 88 167 0.0 3.0 0.00 0.00 0.00 15 1014.8
20201030214104 88 113 0.0 0.0 0.00 0.00 0.00 15 1014.9
20201030213102 89 180 0.0 2.0 0.00 0.00 0.00 14 1014.9
20201030212103 89 113 0.0 0.0 0.00 0.00 0.00 14 1015.1
20201030211106 88 11 0.0 1.0 0.00 0.00 0.00 16 1015.1
20201030210100 89 67 0.0 2.0 0.00 0.00 0.00 15 1015.4
20201030205100 89 26 0.0 2.0 0.00 0.00 0.00 16 1015.6
20201030204103 88 288 0.0 2.0 0.00 0.00 0.00 16 1015.6
20201030203116 89 102 0.0 2.0 0.00 0.00 0.00 16 1015.9
20201030202101 86 90 0.0 2.0 0.00 0.00 0.00 17 1016.1
20201030201105 85 180 0.0 1.0 0.00 0.00 0.00 18 1016.1
20201030200107 86 181 0.0 2.0 0.00 0.00 0.00 17 1016.1
20201030195104 86 115 0.0 2.0 0.00 0.00 0.00 19 1016.3
20201030194059 86 177 0.0 2.0 0.00 0.00 0.00 19 1016.6
20201030193114 86 180 0.0 2.0 0.00 0.00 0.00 19 1016.9
20201030192100 85 179 1.0 3.0 0.00 0.00 0.00 20 1017.2
20201030191102 85 179 0.0 3.0 0.00 0.00 0.00 21 1017.2
20201030190104 83 127 1.0 3.0 0.00 0.00 0.00 21 1017.3
20201030185106 84 177 1.0 3.0 0.00 0.00 0.00 21 1017.4
20201030184111 83 187 1.0 4.0 0.00 0.00 0.00 22 1017.6
20201030183105 81 125 1.0 3.0 0.00 0.00 0.00 23 1017.9
20201030182105 81 149 0.0 3.0 0.00 0.00 0.00 23 1018.1
20201030181121 80 135 0.0 3.0 0.00 0.00 0.00 24 1018.1
20201030180105 79 184 0.0 4.0 0.00 0.00 0.00 25 1018.2
20201030175059 78 176 0.0 2.0 0.00 0.00 0.00 25 1018.3
20201030174104 76 95 0.0 3.0 0.00 0.00 0.00 26 1018.4
20201030173100 75 79 0.0 2.0 0.00 0.00 0.00 28 1018.4
20201030172116 74 110 0.0 2.0 0.00 0.00 0.00 28 1018.6
20201030171103 73 96 0.0 3.0 0.00 0.00 0.00 30 1018.7
20201030170102 72 180 0.0 0.0 0.00 0.00 0.00 31 1018.7
20201030165102 69 105 1.0 3.0 0.00 0.00 0.00 33 1018.8
20201030164103 68 113 0.0 2.0 0.00 0.00 0.00 34 1018.9
20201030163104 66 80 0.0 2.0 0.00 0.00 0.00 35 1018.8
20201030162059 66 74 1.0 2.0 0.00 0.00 0.00 35 1018.8
20201030161103 64 104 1.0 3.0 0.00 0.00 0.00 36 1018.8
20201030160100 63 103 1.0 3.0 0.00 0.00 0.00 37 1018.9
20201030155100 62 103 1.0 3.0 0.00 0.00 0.00 38 1018.9
20201030154102 61 84 2.0 4.0 0.00 0.00 0.00 39 1018.9
20201030153109 60 82 2.0 4.0 0.00 0.00 0.00 40 1018.8
20201030152103 59 72 2.0 4.0 0.00 0.00 0.00 40 1018.8
20201030151119 59 81 1.0 3.0 0.00 0.00 0.00 40 1018.7
20201030150120 59 70 2.0 3.0 0.00 0.00 0.00 40 1018.7
20201030145101 57 84 2.0 3.0 0.00 0.00 0.00 42 1018.4
20201030144100 55 85 1.0 3.0 0.00 0.00 0.00 44 1018.4
20201030143102 55 90 2.0 3.0 0.00 0.00 0.00 45 1018.3
20201030142101 54 77 2.0 3.0 0.00 0.00 0.00 45 1018.3
20201030141102 53 90 1.0 3.0 0.00 0.00 0.00 46 1018.3
20201030140125 53 82 2.0 3.0 0.00 0.00 0.00 46 1018.1
20201030135059 53 85 1.0 3.0 0.00 0.00 0.00 46 1018.2
20201030134100 53 83 1.0 3.0 0.00 0.00 0.00 46 1018.1